CW1575 Weather Reports


Display with metric or nautical units.
time (UTC)temp
F
wind
direction
speed
MPH
gust
MPH
rain 1hr
in
rain 24hr
in
rain mn
in
humidity
%
barometer
mb
20160214143503 32 19 2.0 3.0 0.00 0.00 0.00 64 1013.5
20160214143003 32 144 3.0 6.0 0.00 0.00 0.00 64 1013.7
20160214142503 32 279 2.0 6.0 0.00 0.00 0.00 63 1013.5
20160214142004 32 129 3.0 7.0 0.00 0.00 0.00 62 1013.6
20160214141503 33 196 3.0 5.0 0.00 0.00 0.00 61 1013.7
20160214141003 33 252 1.0 3.0 0.00 0.00 0.00 61 1013.8
20160214140504 33 252 1.0 2.0 0.00 0.00 0.00 60 1013.7
20160214140004 33 252 0.0 2.0 0.00 0.00 0.00 60 1013.4
20160214135503 33 252 2.0 3.0 0.00 0.00 0.00 59 1012.8
20160214135004 33 120 3.0 7.0 0.00 0.00 0.00 59 1013.2
20160214134503 33 210 2.0 3.0 0.00 0.00 0.00 58 1013.3
20160214134003 34 245 1.0 3.0 0.00 0.00 0.00 57 1013.2
20160214133503 34 153 2.0 3.0 0.00 0.00 0.00 57 1013.3
20160214133004 34 168 1.0 3.0 0.00 0.00 0.00 57 1013.3
20160214132503 34 157 2.0 7.0 0.00 0.00 0.00 57 1013.3
20160214132004 34 122 2.0 6.0 0.00 0.00 0.00 57 1013.5
20160214131503 34 231 2.0 3.0 0.00 0.00 0.00 57 1013.3
20160214131003 34 168 1.0 3.0 0.00 0.00 0.00 58 1013.5
20160214130503 33 165 3.0 7.0 0.00 0.00 0.00 58 1013.5
20160214130003 33 185 3.0 8.0 0.00 0.00 0.00 59 1013.7
20160214125504 33 198 3.0 6.0 0.00 0.00 0.00 60 1013.6
20160214125003 33 229 1.0 6.0 0.00 0.00 0.00 60 1013.4
20160214124503 32 143 3.0 9.0 0.00 0.00 0.00 61 1013.6
20160214124004 32 158 3.0 9.0 0.00 0.00 0.00 63 1013.6
20160214123504 31 122 6.0 10.0 0.00 0.00 0.00 65 1013.8
20160214123004 31 126 4.0 7.0 0.00 0.00 0.00 67 1013.9
20160214122503 31 120 2.0 5.0 0.00 0.00 0.00 67 1014.2
20160214122003 31 89 2.0 3.0 0.00 0.00 0.00 68 1014.2
20160214121503 31 152 0.0 3.0 0.00 0.00 0.00 68 1014.3
20160214121003 31 195 2.0 8.0 0.00 0.00 0.00 69 1014.5
20160214120503 31 234 3.0 3.0 0.00 0.00 0.00 69 1014.5
20160214120003 30 171 3.0 5.0 0.00 0.00 0.00 69 1014.5
20160214115504 30 187 2.0 5.0 0.00 0.00 0.00 69 1014.8
20160214115003 30 208 5.0 7.0 0.00 0.00 0.00 69 1014.6
20160214114503 30 170 3.0 5.0 0.00 0.00 0.00 69 1014.9
20160214114004 31 165 2.0 3.0 0.00 0.00 0.00 68 1014.9
20160214113503 31 195 1.0 3.0 0.00 0.00 0.00 68 1014.7
20160214113005 31 167 2.0 5.0 0.00 0.00 0.00 68 1014.7
20160214112503 31 195 2.0 5.0 0.00 0.00 0.00 67 1014.9
20160214112003 31 173 2.0 3.0 0.00 0.00 0.00 67 1015.1
20160214111503 31 197 2.0 3.0 0.00 0.00 0.00 67 1015.1
20160214111004 32 213 2.0 3.0 0.00 0.00 0.00 67 1015.3
20160214110504 32 212 2.0 3.0 0.00 0.00 0.00 66 1015.1
20160214110003 32 173 1.0 2.0 0.00 0.00 0.00 66 1015.3
20160214105503 32 173 1.0 3.0 0.00 0.00 0.00 65 1015.7
20160214105003 32 173 1.0 3.0 0.00 0.00 0.00 65 1015.9
20160214104503 33 162 1.0 3.0 0.00 0.00 0.00 65 1015.7
20160214104003 33 159 1.0 2.0 0.00 0.00 0.00 65 1015.6
20160214103504 33 159 2.0 3.0 0.00 0.00 0.00 65 1015.6
20160214103003 33 164 2.0 5.0 0.00 0.00 0.00 64 1015.9
20160214102503 33 170 1.0 5.0 0.00 0.00 0.00 64 1016.0
20160214102003 33 170 1.0 7.0 0.00 0.00 0.00 64 1016.3
20160214101505 33 79 1.0 3.0 0.00 0.00 0.00 64 1016.1
20160214101003 33 162 2.0 3.0 0.00 0.00 0.00 64 1016.3
20160214100504 34 164 2.0 6.0 0.00 0.00 0.00 64 1016.3
20160214100003 34 158 2.0 3.0 0.00 0.00 0.00 64 1016.4
20160214095503 34 130 4.0 7.0 0.00 0.00 0.00 64 1016.6
20160214095003 34 148 3.0 5.0 0.00 0.00 0.00 64 1016.6
20160214094504 34 157 2.0 5.0 0.00 0.00 0.00 64 1016.6
20160214094003 34 145 3.0 5.0 0.00 0.00 0.00 64 1016.7
20160214093503 34 148 3.0 6.0 0.00 0.00 0.00 64 1016.9
20160214093004 34 130 2.0 3.0 0.00 0.00 0.00 65 1017.0
20160214092503 34 157 3.0 8.0 0.00 0.00 0.00 65 1017.2
20160214092003 34 148 3.0 5.0 0.00 0.00 0.00 65 1017.5
20160214091004 34 119 3.0 9.0 0.00 0.00 0.00 65 1017.6
20160214090503 34 185 3.0 6.0 0.00 0.00 0.00 65 1017.6
20160214090004 34 146 3.0 7.0 0.00 0.00 0.00 65 1017.6
20160214085503 34 133 2.0 7.0 0.00 0.00 0.00 65 1017.7
20160214085004 34 136 2.0 5.0 0.00 0.00 0.00 66 1017.9
20160214084503 34 129 3.0 6.0 0.00 0.00 0.00 66 1017.9
20160214084003 34 127 4.0 8.0 0.00 0.00 0.00 66 1017.9
20160214083504 34 145 4.0 8.0 0.00 0.00 0.00 66 1018.1
20160214083003 34 129 3.0 6.0 0.00 0.00 0.00 66 1018.1
20160214082503 34 135 3.0 7.0 0.00 0.00 0.00 66 1018.1
20160214082004 34 161 3.0 7.0 0.00 0.00 0.00 66 1018.1
20160214081504 35 163 3.0 7.0 0.00 0.00 0.00 66 1018.0
20160214081003 35 148 3.0 8.0 0.00 0.00 0.00 66 1018.0
20160214080503 35 164 4.0 8.0 0.00 0.00 0.00 65 1018.2
20160214080003 35 158 2.0 5.0 0.00 0.00 0.00 65 1018.4
20160214075503 35 153 3.0 7.0 0.00 0.00 0.00 64 1018.0
20160214075004 36 107 5.0 9.0 0.00 0.00 0.00 63 1018.1
20160214074503 36 137 4.0 9.0 0.00 0.00 0.00 62 1018.1
20160214074003 36 123 5.0 8.0 0.00 0.00 0.00 61 1018.2
20160214073503 37 137 4.0 7.0 0.00 0.00 0.00 60 1018.2
20160214073004 37 141 3.0 6.0 0.00 0.00 0.00 58 1018.0
20160214072503 37 110 1.0 2.0 0.00 0.00 0.00 61 1018.2
20160214072004 37 110 3.0 10.0 0.00 0.00 0.00 58 1017.7
20160214071503 38 125 5.0 12.0 0.00 0.00 0.00 56 1017.7
20160214071003 39 99 3.0 12.0 0.00 0.00 0.00 54 1017.5
20160214070503 39 73 6.0 12.0 0.00 0.00 0.00 51 1017.5
20160214070003 40 62 3.0 8.0 0.00 0.00 0.00 48 1017.5
20160214065505 40 54 3.0 9.0 0.00 0.00 0.00 47 1017.3
20160214065004 41 48 6.0 10.0 0.00 0.00 0.00 45 1017.1
20160214064503 42 59 5.0 10.0 0.00 0.00 0.00 43 1017.3
20160214064004 42 32 5.0 8.0 0.00 0.00 0.00 42 1017.2
20160214063503 43 50 5.0 10.0 0.00 0.00 0.00 39 1017.4
20160214063004 44 28 2.0 6.0 0.00 0.00 0.00 37 1017.1
20160214062503 45 65 3.0 12.0 0.00 0.00 0.00 36 1017.3
20160214062003 45 44 4.0 7.0 0.00 0.00 0.00 35 1017.0
20160214061503 46 39 4.0 9.0 0.00 0.00 0.00 33 1017.0
20160214061004 46 37 4.0 9.0 0.00 0.00 0.00 32 1017.0
20160214060503 47 91 3.0 7.0 0.00 0.00 0.00 31 1016.8
20160214060004 48 47 2.0 7.0 0.00 0.00 0.00 30 1016.9
20160214055503 48 38 3.0 6.0 0.00 0.00 0.00 30 1017.0
20160214055004 49 97 3.0 6.0 0.00 0.00 0.00 29 1017.1
20160214054503 49 5 2.0 10.0 0.00 0.00 0.00 29 1016.8
20160214054003 50 36 5.0 12.0 0.00 0.00 0.00 27 1016.7
20160214053503 50 89 5.0 9.0 0.00 0.00 0.00 24 1016.8
20160214053004 50 21 3.0 7.0 0.00 0.00 0.00 23 1016.1
20160214052503 49 98 6.0 10.0 0.00 0.00 0.00 22 1016.2
20160214052004 49 221 3.0 5.0 0.00 0.00 0.00 21 1015.9
20160214051503 49 154 10.0 20.0 0.00 0.00 0.00 22 1016.3
20160214051003 49 40 3.0 5.0 0.00 0.00 0.00 24 1016.0
20160214050503 49 113 3.0 7.0 0.00 0.00 0.00 23 1015.9
20160214050003 50 88 2.0 3.0 0.00 0.00 0.00 22 1015.7
20160214045503 50 19 2.0 6.0 0.00 0.00 0.00 23 1015.4
20160214045004 51 38 1.0 6.0 0.00 0.00 0.00 21 1015.5
20160214044503 51 79 3.0 6.0 0.00 0.00 0.00 22 1015.6
20160214044004 51 64 1.0 3.0 0.00 0.00 0.00 22 1015.5
20160214043503 52 107 4.0 7.0 0.00 0.00 0.00 20 1015.4
20160214043003 52 105 3.0 6.0 0.00 0.00 0.00 20 1015.5
20160214042503 52 61 2.0 3.0 0.00 0.00 0.00 21 1015.5
20160214042004 53 5 1.0 3.0 0.00 0.00 0.00 20 1015.3
20160214041504 53 22 1.0 7.0 0.00 0.00 0.00 19 1015.3
20160214041003 53 74 2.0 13.0 0.00 0.00 0.00 19 1015.2
20160214040503 53 55 9.0 14.0 0.00 0.00 0.00 19 1015.4
20160214040003 53 291 5.0 12.0 0.00 0.00 0.00 19 1015.2
20160214035503 53 55 2.0 9.0 0.00 0.00 0.00 19 1015.1
20160214035003 54 143 3.0 6.0 0.00 0.00 0.00 19 1015.0
20160214034503 54 22 3.0 10.0 0.00 0.00 0.00 19 1014.7
20160214034003 54 316 6.0 15.0 0.00 0.00 0.00 19 1014.7
20160214033503 54 294 5.0 12.0 0.00 0.00 0.00 18 1014.7
20160214033004 54 280 6.0 16.0 0.00 0.00 0.00 19 1014.5
20160214032503 54 149 7.0 21.0 0.00 0.00 0.00 18 1014.7
20160214032003 54 117 7.0 12.0 0.00 0.00 0.00 18 1014.6
20160214031504 53 66 4.0 10.0 0.00 0.00 0.00 18 1014.6
20160214031004 53 39 4.0 12.0 0.00 0.00 0.00 17 1014.4
20160214030504 52 209 5.0 12.0 0.00 0.00 0.00 18 1013.5
20160214030003 52 356 4.0 12.0 0.00 0.00 0.00 18 1013.5
20160214025503 52 302 6.0 15.0 0.00 0.00 0.00 19 1013.1
20160214025003 51 274 3.0 12.0 0.00 0.00 0.00 20 1013.1
20160214024504 51 261 4.0 14.0 0.00 0.00 0.00 21 1013.4
20160214024003 51 248 6.0 10.0 0.00 0.00 0.00 22 1013.3
20160214023503 51 216 4.0 10.0 0.00 0.00 0.00 25 1013.4
20160214023003 51 210 2.0 10.0 0.00 0.00 0.00 24 1013.5
20160214022503 51 229 4.0 10.0 0.00 0.00 0.00 24 1013.7
20160214022004 51 256 1.0 3.0 0.00 0.00 0.00 25 1013.9
20160214021503 51 256 2.0 3.0 0.00 0.00 0.00 24 1014.2
20160214021003 51 289 0.0 3.0 0.00 0.00 0.00 25 1014.1
20160214020504 52 310 3.0 5.0 0.00 0.00 0.00 25 1014.2
20160214020004 52 348 0.0 2.0 0.00 0.00 0.00 26 1014.1
20160214015503 52 344 2.0 3.0 0.00 0.00 0.00 26 1013.8
20160214015003 53 149 2.0 3.0 0.00 0.00 0.00 26 1014.0
20160214014504 53 149 2.0 3.0 0.00 0.00 0.00 25 1014.0
20160214014003 53 236 2.0 3.0 0.00 0.00 0.00 25 1013.6
20160214013503 53 157 2.0 3.0 0.00 0.00 0.00 25 1013.7
20160214013003 53 146 3.0 12.0 0.00 0.00 0.00 25 1013.8
20160214012503 53 193 3.0 20.0 0.00 0.00 0.00 26 1014.1
20160214012003 53 182 5.0 9.0 0.00 0.00 0.00 26 1014.4
20160214011503 53 193 6.0 12.0 0.00 0.00 0.00 26 1014.6
20160214011003 54 188 6.0 14.0 0.00 0.00 0.00 26 1014.7
20160214010503 54 198 6.0 10.0 0.00 0.00 0.00 27 1014.9
20160214010003 54 213 8.0 14.0 0.00 0.00 0.00 27 1014.8
20160214005503 55 223 8.0 13.0 0.00 0.00 0.00 26 1014.8
20160214005004 55 225 7.0 12.0 0.00 0.00 0.00 26 1014.9
20160214004503 55 224 6.0 12.0 0.00 0.00 0.00 25 1015.0
20160214004003 56 227 8.0 14.0 0.00 0.00 0.00 25 1015.3
20160214003504 56 223 7.0 12.0 0.00 0.00 0.00 25 1015.4
20160214003003 56 242 5.0 14.0 0.00 0.00 0.00 24 1015.3
20160214002504 57 232 7.0 15.0 0.00 0.00 0.00 24 1015.4
20160214002003 57 235 9.0 17.0 0.00 0.00 0.00 23 1015.4
20160214001503 58 258 6.0 14.0 0.00 0.00 0.00 22 1015.5
20160214001003 58 255 9.0 15.0 0.00 0.00 0.00 22 1015.7
20160214000503 59 269 7.0 17.0 0.00 0.00 0.00 22 1015.6
20160214000004 59 265 7.0 13.0 0.00 0.00 0.00 21 1015.6
20160213235503 59 240 5.0 14.0 0.00 0.00 0.00 21 1015.6
20160213235004 60 283 7.0 12.0 0.00 0.00 0.00 21 1015.4
20160213234504 60 267 7.0 21.0 0.00 0.00 0.00 20 1015.5
20160213234004 60 281 7.0 16.0 0.00 0.00 0.00 20 1015.5
20160213233504 60 264 5.0 13.0 0.00 0.00 0.00 20 1015.8
20160213233003 61 272 9.0 20.0 0.00 0.00 0.00 19 1015.7
20160213232503 61 270 7.0 16.0 0.00 0.00 0.00 19 1015.6
20160213232004 61 266 9.0 18.0 0.00 0.00 0.00 18 1015.7
20160213231503 61 257 6.0 20.0 0.00 0.00 0.00 19 1015.7
20160213231003 61 285 7.0 18.0 0.00 0.00 0.00 19 1015.4
20160213230503 61 290 8.0 20.0 0.00 0.00 0.00 19 1015.5
20160213230004 62 307 13.0 25.0 0.00 0.00 0.00 18 1015.0
20160213225504 63 299 10.0 22.0 0.00 0.00 0.00 17 1014.8
20160213225003 63 292 10.0 20.0 0.00 0.00 0.00 16 1014.5
20160213224503 64 312 9.0 20.0 0.00 0.00 0.00 17 1014.6
20160213224003 64 296 7.0 18.0 0.00 0.00 0.00 16 1014.5
20160213223503 65 329 6.0 15.0 0.00 0.00 0.00 16 1014.7
20160213223004 66 278 7.0 16.0 0.00 0.00 0.00 16 1014.5
20160213222503 66 292 5.0 12.0 0.00 0.00 0.00 16 1014.5
20160213222004 66 311 9.0 17.0 0.00 0.00 0.00 15 1014.4
20160213221503 67 314 9.0 14.0 0.00 0.00 0.00 15 1014.3
20160213221003 67 301 9.0 15.0 0.00 0.00 0.00 15 1014.2
20160213220503 68 306 7.0 17.0 0.00 0.00 0.00 15 1013.7
20160213220003 68 291 7.0 17.0 0.00 0.00 0.00 14 1013.7
20160213215503 68 309 8.0 15.0 0.00 0.00 0.00 15 1013.7
20160213215003 69 287 7.0 15.0 0.00 0.00 0.00 14 1013.6
20160213214504 69 265 7.0 14.0 0.00 0.00 0.00 14 1013.5
20160213214004 68 293 6.0 20.0 0.00 0.00 0.00 16 1013.5
20160213213503 68 303 5.0 10.0 0.00 0.00 0.00 16 1013.5
20160213213003 68 298 6.0 16.0 0.00 0.00 0.00 16 1013.4
20160213212503 67 288 7.0 13.0 0.00 0.00 0.00 16 1013.3
20160213212003 67 300 9.0 15.0 0.00 0.00 0.00 15 1013.3
20160213211503 66 281 9.0 18.0 0.00 0.00 0.00 15 1013.3
20160213211003 65 250 6.0 16.0 0.00 0.00 0.00 19 1013.3
20160213210504 64 281 7.0 13.0 0.00 0.00 0.00 18 1013.6
20160213210003 62 317 7.0 16.0 0.00 0.00 0.00 21 1013.6
20160213205503 61 32 3.0 6.0 0.00 0.00 0.00 34 1013.6
20160213205003 60 36 2.0 7.0 0.00 0.00 0.00 38 1013.6
20160213204503 60 103 5.0 9.0 0.00 0.00 0.00 38 1013.8
20160213204003 60 76 2.0 5.0 0.00 0.00 0.00 40 1013.8
20160213203503 59 51 4.0 7.0 0.00 0.00 0.00 42 1014.1
20160213203003 59 45 3.0 7.0 0.00 0.00 0.00 41 1014.4
20160213202504 58 36 4.0 7.0 0.00 0.00 0.00 43 1014.3
20160213202003 58 90 2.0 5.0 0.00 0.00 0.00 43 1014.4
20160213201504 58 60 1.0 5.0 0.00 0.00 0.00 43 1014.4
20160213201004 57 12 2.0 3.0 0.00 0.00 0.00 42 1014.6
20160213200503 57 10 3.0 9.0 0.00 0.00 0.00 43 1014.7
20160213200003 57 40 3.0 5.0 0.00 0.00 0.00 44 1014.8
20160213195504 56 52 2.0 3.0 0.00 0.00 0.00 47 1015.1
20160213195003 56 29 2.0 9.0 0.00 0.00 0.00 48 1015.4
20160213194503 56 19 7.0 13.0 0.00 0.00 0.00 48 1015.3
20160213194003 56 16 6.0 12.0 0.00 0.00 0.00 49 1015.6
20160213193503 57 26 6.0 10.0 0.00 0.00 0.00 48 1015.7
20160213193003 57 12 1.0 5.0 0.00 0.00 0.00 48 1015.8
20160213192504 57 42 6.0 12.0 0.00 0.00 0.00 47 1015.7
20160213192003 57 38 5.0 9.0 0.00 0.00 0.00 48 1015.9
20160213191504 57 43 3.0 5.0 0.00 0.00 0.00 49 1016.2
20160213191003 57 4 4.0 8.0 0.00 0.00 0.00 49 1016.1
20160213190504 57 40 3.0 6.0 0.00 0.00 0.00 50 1016.4
20160213190003 56 32 4.0 9.0 0.00 0.00 0.00 50 1016.3
20160213185503 56 9 5.0 8.0 0.00 0.00 0.00 51 1016.2
20160213185003 55 44 2.0 7.0 0.00 0.00 0.00 50 1016.2
20160213184503 54 37 4.0 8.0 0.00 0.00 0.00 48 1016.2
20160213184004 53 32 2.0 6.0 0.00 0.00 0.00 48 1016.3
20160213183503 52 69 2.0 3.0 0.00 0.00 0.00 49 1016.3
20160213183003 51 71 2.0 3.0 0.00 0.00 0.00 53 1016.4
20160213182503 50 19 2.0 7.0 0.00 0.00 0.00 55 1016.4
20160213182003 48 48 3.0 5.0 0.00 0.00 0.00 62 1016.4
20160213181503 47 74 2.0 3.0 0.00 0.00 0.00 67 1016.7
20160213181004 45 74 1.0 3.0 0.00 0.00 0.00 72 1016.7
20160213180503 44 95 2.0 3.0 0.00 0.00 0.00 77 1016.9
20160213180003 43 141 1.0 3.0 0.00 0.00 0.00 82 1016.9
20160213175503 41 120 3.0 3.0 0.00 0.00 0.00 87 1016.9
20160213175003 40 95 2.0 3.0 0.00 0.00 0.00 92 1016.9
20160213174503 38 109 2.0 3.0 0.00 0.00 0.00 96 1017.2
20160213174003 37 218 1.0 2.0 0.00 0.00 0.00 96 1017.3
20160213173503 36 162 1.0 3.0 0.00 0.00 0.00 97 1017.1
20160213173003 35 166 1.0 3.0 0.00 0.00 0.00 96 1017.5
20160213172504 35 213 0.0 2.0 0.00 0.00 0.00 96 1017.6
20160213172003 34 211 0.0 3.0 0.00 0.00 0.00 96 1017.7
20160213171503 34 209 2.0 3.0 0.00 0.00 0.00 96 1017.7
20160213171003 33 211 1.0 3.0 0.00 0.00 0.00 96 1017.7
20160213170503 33 211 2.0 3.0 0.00 0.00 0.00 96 1017.8
20160213170004 32 209 1.0 3.0 0.00 0.00 0.00 96 1017.8
20160213165503 32 209 1.0 3.0 0.00 0.00 0.00 100 1017.8
20160213165003 32 163 2.0 3.0 0.00 0.00 0.00 96 1017.9
20160213164503 31 164 0.0 1.0 0.00 0.00 0.00 96 1018.0
20160213164003 31 164 0.0 2.0 0.00 0.00 0.00 96 1018.1
20160213163503 30 164 0.0 2.0 0.00 0.00 0.00 96 1018.3
20160213163003 30 174 2.0 3.0 0.00 0.00 0.00 95 1018.3
20160213162503 30 229 1.0 2.0 0.00 0.00 0.00 95 1018.2
20160213162003 30 229 1.0 2.0 0.00 0.00 0.00 95 1018.3
20160213161503 29 229 0.0 2.0 0.00 0.00 0.00 95 1018.3
20160213161003 29 229 1.0 2.0 0.00 0.00 0.00 95 1018.4
20160213160503 29 229 1.0 3.0 0.00 0.00 0.00 95 1018.3
20160213160004 29 229 2.0 3.0 0.00 0.00 0.00 95 1018.9
20160213155503 29 229 2.0 3.0 0.00 0.00 0.00 95 1018.8
20160213155003 29 229 1.0 3.0 0.00 0.00 0.00 95 1018.9
20160213154504 29 248 2.0 3.0 0.00 0.00 0.00 95 1019.0
20160213154003 29 248 2.0 3.0 0.00 0.00 0.00 95 1019.2
20160213153503 29 251 1.0 3.0 0.00 0.00 0.00 95 1019.3
20160213153003 29 187 1.0 3.0 0.00 0.00 0.00 95 1019.0
20160213152503 29 196 1.0 2.0 0.00 0.00 0.00 95 1019.3
20160213152003 29 196 2.0 3.0 0.00 0.00 0.00 95 1019.1
20160213151503 29 203 1.0 3.0 0.00 0.00 0.00 95 1019.3
20160213151003 29 186 1.0 3.0 0.00 0.00 0.00 95 1019.2
20160213150506 29 186 1.0 3.0 0.00 0.00 0.00 94 1019.4
20160213150004 29 186 2.0 3.0 0.00 0.00 0.00 94 1019.0
20160213145504 29 173 1.0 5.0 0.00 0.00 0.00 94 1019.4
20160213145003 29 193 1.0 5.0 0.00 0.00 0.00 94 1019.4
20160213144504 29 219 2.0 5.0 0.00 0.00 0.00 94 1019.1
20160213144003 29 127 0.0 2.0 0.00 0.00 0.00 94 1019.2